Year,Month,Day,Hour,Minute,Value (Times are PST for temperature in C)
2018,07,12,00,00,12.30
2018,07,12,00,01,12.30
2018,07,12,00,02,12.30
2018,07,12,00,03,12.20
2018,07,12,00,04,12.20
2018,07,12,00,05,12.20
2018,07,12,00,06,12.20
2018,07,12,00,07,12.20
2018,07,12,00,08,12.20
2018,07,12,00,09,12.20
2018,07,12,00,10,12.20
2018,07,12,00,11,12.20
2018,07,12,00,12,12.20
2018,07,12,00,13,12.20
2018,07,12,00,14,12.20
2018,07,12,00,15,12.20
2018,07,12,00,16,12.20
2018,07,12,00,17,12.20
2018,07,12,00,18,12.20
2018,07,12,00,19,12.20
2018,07,12,00,20,12.20
2018,07,12,00,21,12.20
2018,07,12,00,22,12.20
2018,07,12,00,23,12.10
2018,07,12,00,24,12.10
2018,07,12,00,25,12.10
2018,07,12,00,26,12.10
2018,07,12,00,27,12.10
2018,07,12,00,28,12.10
2018,07,12,00,29,12.10
2018,07,12,00,30,12.10
2018,07,12,00,31,12.10
2018,07,12,00,32,12.10
2018,07,12,00,33,12.10
2018,07,12,00,34,12.10
2018,07,12,00,35,12.00
2018,07,12,00,36,12.00
2018,07,12,00,37,12.00
2018,07,12,00,38,12.00
2018,07,12,00,39,12.00
2018,07,12,00,40,11.90
2018,07,12,00,41,11.90
2018,07,12,00,42,11.90
2018,07,12,00,43,11.90
2018,07,12,00,44,11.90
2018,07,12,00,45,11.90
2018,07,12,00,46,11.90
2018,07,12,00,47,11.90
2018,07,12,00,48,11.90
2018,07,12,00,49,11.90
2018,07,12,00,50,11.90
2018,07,12,00,51,11.90
2018,07,12,00,52,11.80
2018,07,12,00,53,11.80
2018,07,12,00,54,11.80
2018,07,12,00,55,11.80
2018,07,12,00,56,11.80
2018,07,12,00,57,11.80
2018,07,12,00,58,11.80
2018,07,12,00,59,11.80
2018,07,12,01,00,11.70
2018,07,12,01,01,11.70
2018,07,12,01,02,11.70
2018,07,12,01,03,11.70
2018,07,12,01,04,11.60
2018,07,12,01,05,11.60
2018,07,12,01,06,11.60
2018,07,12,01,07,11.60
2018,07,12,01,08,11.50
2018,07,12,01,09,11.50
2018,07,12,01,10,11.50
2018,07,12,01,11,11.40
2018,07,12,01,12,11.40
2018,07,12,01,13,11.40
2018,07,12,01,14,11.30
2018,07,12,01,15,11.30
2018,07,12,01,16,11.30
2018,07,12,01,17,11.30
2018,07,12,01,18,11.30
2018,07,12,01,19,11.20
2018,07,12,01,20,11.20
2018,07,12,01,21,11.20
2018,07,12,01,22,11.20
2018,07,12,01,23,11.10
2018,07,12,01,24,11.10
2018,07,12,01,25,11.10
2018,07,12,01,26,11.10
2018,07,12,01,27,11.10
2018,07,12,01,28,11.10
2018,07,12,01,29,11.10
2018,07,12,01,30,11.10
2018,07,12,01,31,11.00
2018,07,12,01,32,11.00
2018,07,12,01,33,11.00
2018,07,12,01,34,11.00
2018,07,12,01,35,11.00
2018,07,12,01,36,10.90
2018,07,12,01,37,10.90
2018,07,12,01,38,10.90
2018,07,12,01,39,10.90
2018,07,12,01,40,10.90
2018,07,12,01,41,10.90
2018,07,12,01,42,10.90
2018,07,12,01,43,10.80
2018,07,12,01,44,10.80
2018,07,12,01,45,10.80
2018,07,12,01,46,10.70
2018,07,12,01,47,10.70
2018,07,12,01,48,10.70
2018,07,12,01,49,10.70
2018,07,12,01,50,10.70
2018,07,12,01,51,10.60
2018,07,12,01,52,10.60
2018,07,12,01,53,10.60
2018,07,12,01,54,10.60
2018,07,12,01,55,10.60
2018,07,12,01,56,10.50
2018,07,12,01,57,10.50
2018,07,12,01,58,10.40
2018,07,12,01,59,10.40
2018,07,12,02,00,10.40
2018,07,12,02,01,10.30
2018,07,12,02,02,10.30
2018,07,12,02,03,10.30
2018,07,12,02,04,10.20
2018,07,12,02,05,10.20
2018,07,12,02,06,10.20
2018,07,12,02,07,10.20
2018,07,12,02,08,10.20
2018,07,12,02,09,10.10
2018,07,12,02,10,10.10
2018,07,12,02,11,10.00
2018,07,12,02,12,10.00
2018,07,12,02,13,9.90
2018,07,12,02,14,9.90
2018,07,12,02,15,9.90
2018,07,12,02,16,9.90
2018,07,12,02,17,9.90
2018,07,12,02,18,9.90
2018,07,12,02,19,9.90
2018,07,12,02,20,9.80
2018,07,12,02,21,9.80
2018,07,12,02,22,9.80
2018,07,12,02,23,9.80
2018,07,12,02,24,9.80
2018,07,12,02,25,9.80
2018,07,12,02,26,9.80
2018,07,12,02,27,9.70
2018,07,12,02,28,9.70
2018,07,12,02,29,9.70
2018,07,12,02,30,9.60
2018,07,12,02,31,9.60
2018,07,12,02,32,9.60
2018,07,12,02,33,9.60
2018,07,12,02,34,9.60
2018,07,12,02,35,9.50
2018,07,12,02,36,9.50
2018,07,12,02,37,9.50
2018,07,12,02,38,9.40
2018,07,12,02,39,9.40
2018,07,12,02,40,9.40
2018,07,12,02,41,9.40
2018,07,12,02,42,9.30
2018,07,12,02,43,9.30
2018,07,12,02,44,9.30
2018,07,12,02,45,9.30
2018,07,12,02,46,9.20
2018,07,12,02,47,9.20
2018,07,12,02,48,9.20
2018,07,12,02,49,9.10
2018,07,12,02,50,9.10
2018,07,12,02,51,9.10
2018,07,12,02,52,9.10
2018,07,12,02,53,9.00
2018,07,12,02,54,9.00
2018,07,12,02,55,9.00
2018,07,12,02,56,8.90
2018,07,12,02,57,8.90
2018,07,12,02,58,8.90
2018,07,12,02,59,8.90
2018,07,12,03,00,8.90
2018,07,12,03,01,8.80
2018,07,12,03,02,8.80
2018,07,12,03,03,8.80
2018,07,12,03,04,8.80
2018,07,12,03,05,8.80
2018,07,12,03,06,8.80
2018,07,12,03,07,8.70
2018,07,12,03,08,8.70
2018,07,12,03,09,8.70
2018,07,12,03,10,8.70
2018,07,12,03,11,8.60
2018,07,12,03,12,8.60
2018,07,12,03,13,8.60
2018,07,12,03,14,8.60
2018,07,12,03,15,8.60
2018,07,12,03,16,8.50
2018,07,12,03,17,8.50
2018,07,12,03,18,8.50
2018,07,12,03,19,8.50
2018,07,12,03,20,8.50
2018,07,12,03,21,8.50
2018,07,12,03,22,8.50
2018,07,12,03,23,8.50
2018,07,12,03,24,8.50
2018,07,12,03,25,8.50
2018,07,12,03,26,8.50
2018,07,12,03,27,8.50
2018,07,12,03,28,8.50
2018,07,12,03,29,8.50
2018,07,12,03,30,8.50
2018,07,12,03,31,8.50
2018,07,12,03,32,8.50
2018,07,12,03,33,8.50
2018,07,12,03,34,8.50
2018,07,12,03,35,8.40
2018,07,12,03,36,8.40
2018,07,12,03,37,8.40
2018,07,12,03,38,8.40
2018,07,12,03,39,8.40
2018,07,12,03,40,8.40
2018,07,12,03,41,8.40
2018,07,12,03,42,8.40
2018,07,12,03,43,8.40
2018,07,12,03,44,8.40
2018,07,12,03,45,8.30
2018,07,12,03,46,8.30
2018,07,12,03,47,8.30
2018,07,12,03,48,8.30
2018,07,12,03,49,8.30
2018,07,12,03,50,8.30
2018,07,12,03,51,8.30
2018,07,12,03,52,8.30
2018,07,12,03,53,8.30
2018,07,12,03,54,8.30
2018,07,12,03,55,8.30
2018,07,12,03,56,8.30
2018,07,12,03,57,8.30
2018,07,12,03,58,8.30
2018,07,12,03,59,8.30
2018,07,12,04,00,8.30
2018,07,12,04,01,8.30
2018,07,12,04,02,8.30
2018,07,12,04,03,8.30
2018,07,12,04,04,8.30
2018,07,12,04,05,8.30
2018,07,12,04,06,8.30
2018,07,12,04,07,8.30
2018,07,12,04,08,8.30
2018,07,12,04,09,8.30
2018,07,12,04,10,8.30
2018,07,12,04,11,8.30
2018,07,12,04,12,8.40
2018,07,12,04,13,8.40
2018,07,12,04,14,8.40
2018,07,12,04,15,8.30
2018,07,12,04,16,8.30
2018,07,12,04,17,8.30
2018,07,12,04,18,8.30
2018,07,12,04,19,8.30
2018,07,12,04,20,8.30
2018,07,12,04,21,8.30
2018,07,12,04,22,8.30
2018,07,12,04,23,8.30
2018,07,12,04,24,8.40
2018,07,12,04,25,8.40
2018,07,12,04,26,8.40
2018,07,12,04,27,8.40
2018,07,12,04,28,8.40
2018,07,12,04,29,8.40
2018,07,12,04,30,8.40
2018,07,12,04,31,8.40
2018,07,12,04,32,8.40
2018,07,12,04,33,8.40
2018,07,12,04,34,8.40
2018,07,12,04,35,8.30
2018,07,12,04,36,8.30
2018,07,12,04,37,8.30
2018,07,12,04,38,8.30
2018,07,12,04,39,8.30
2018,07,12,04,40,8.30
2018,07,12,04,41,8.30
2018,07,12,04,42,8.30
2018,07,12,04,43,8.30
2018,07,12,04,44,8.30
2018,07,12,04,45,8.30
2018,07,12,04,46,8.30
2018,07,12,04,47,8.30
2018,07,12,04,48,8.30
2018,07,12,04,49,8.30
2018,07,12,04,50,8.30
2018,07,12,04,51,8.30
2018,07,12,04,52,8.30
2018,07,12,04,53,8.30
2018,07,12,04,54,8.30
2018,07,12,04,55,8.30
2018,07,12,04,56,8.30
2018,07,12,04,57,8.30
2018,07,12,04,58,8.40
2018,07,12,04,59,8.40
2018,07,12,05,00,8.40
2018,07,12,05,01,8.40
2018,07,12,05,02,8.40
2018,07,12,05,03,8.40
2018,07,12,05,04,8.40
2018,07,12,05,05,8.40
2018,07,12,05,06,8.40
2018,07,12,05,07,8.40
2018,07,12,05,08,8.40
2018,07,12,05,09,8.40
2018,07,12,05,10,8.40
2018,07,12,05,11,8.40
2018,07,12,05,12,8.40
2018,07,12,05,13,8.40
2018,07,12,05,14,8.40
2018,07,12,05,15,8.40
2018,07,12,05,16,8.40
2018,07,12,05,17,8.40
2018,07,12,05,18,8.40
2018,07,12,05,19,8.40
2018,07,12,05,20,8.40
2018,07,12,05,21,8.40
2018,07,12,05,22,8.50
2018,07,12,05,23,8.50
2018,07,12,05,24,8.50
2018,07,12,05,25,8.50
2018,07,12,05,26,8.50
2018,07,12,05,27,8.50
2018,07,12,05,28,8.50
2018,07,12,05,29,8.60
2018,07,12,05,30,8.60
2018,07,12,05,31,8.60
2018,07,12,05,32,8.60
2018,07,12,05,33,8.60
2018,07,12,05,34,8.70
2018,07,12,05,35,8.70
2018,07,12,05,36,8.70
2018,07,12,05,37,8.70
2018,07,12,05,38,8.60
2018,07,12,05,39,8.60
2018,07,12,05,40,8.60
2018,07,12,05,41,8.60
2018,07,12,05,42,8.60
2018,07,12,05,43,8.60
2018,07,12,05,44,8.60
2018,07,12,05,45,8.60
2018,07,12,05,46,8.60
2018,07,12,05,47,8.70
2018,07,12,05,48,8.70
2018,07,12,05,49,8.70
2018,07,12,05,50,8.70
2018,07,12,05,51,8.70
2018,07,12,05,52,8.70
2018,07,12,05,53,8.70
2018,07,12,05,54,8.70
2018,07,12,05,55,8.70
2018,07,12,05,56,8.70
2018,07,12,05,57,8.70
2018,07,12,05,58,8.70
2018,07,12,05,59,8.70
2018,07,12,06,00,8.70
2018,07,12,06,01,8.80
2018,07,12,06,02,8.80
2018,07,12,06,03,8.80
2018,07,12,06,04,8.80
2018,07,12,06,05,8.80
2018,07,12,06,06,8.80
2018,07,12,06,07,8.80
2018,07,12,06,08,8.90
2018,07,12,06,09,8.90
2018,07,12,06,10,8.90
2018,07,12,06,11,9.00
2018,07,12,06,12,9.00
2018,07,12,06,13,9.10
2018,07,12,06,14,9.10
2018,07,12,06,15,9.20
2018,07,12,06,16,9.20
2018,07,12,06,17,9.20
2018,07,12,06,18,9.20
2018,07,12,06,19,9.20
2018,07,12,06,20,9.20
2018,07,12,06,21,9.20
2018,07,12,06,22,9.20
2018,07,12,06,23,9.20
2018,07,12,06,24,9.20
2018,07,12,06,25,9.20
2018,07,12,06,26,9.20
2018,07,12,06,27,9.20
2018,07,12,06,28,9.20
2018,07,12,06,29,9.20
2018,07,12,06,30,9.30
2018,07,12,06,31,9.30
2018,07,12,06,32,9.30
2018,07,12,06,33,9.30
2018,07,12,06,34,9.30
2018,07,12,06,35,9.30
2018,07,12,06,36,9.30
2018,07,12,06,37,9.30
2018,07,12,06,38,9.30
2018,07,12,06,39,9.30
2018,07,12,06,40,9.30
2018,07,12,06,41,9.30
2018,07,12,06,42,9.40
2018,07,12,06,43,9.40
2018,07,12,06,44,9.40
2018,07,12,06,45,9.50
2018,07,12,06,46,9.50
2018,07,12,06,47,9.60
2018,07,12,06,48,9.60
2018,07,12,06,49,9.60
2018,07,12,06,50,9.60
2018,07,12,06,51,9.60
2018,07,12,06,52,9.60
2018,07,12,06,53,9.60
2018,07,12,06,54,9.50
2018,07,12,06,55,9.50
2018,07,12,06,56,9.50
2018,07,12,06,57,9.40
2018,07,12,06,58,9.40
2018,07,12,06,59,9.40
2018,07,12,07,00,9.40
2018,07,12,07,01,9.40
2018,07,12,07,02,9.40
2018,07,12,07,03,9.30
2018,07,12,07,04,9.30
2018,07,12,07,05,9.30
2018,07,12,07,06,9.30
2018,07,12,07,07,9.30
2018,07,12,07,08,9.30
2018,07,12,07,09,9.30
2018,07,12,07,10,9.30
2018,07,12,07,11,9.30
2018,07,12,07,12,9.30
2018,07,12,07,13,9.30
2018,07,12,07,14,9.40
2018,07,12,07,15,9.40
2018,07,12,07,16,9.40
2018,07,12,07,17,9.40
2018,07,12,07,18,9.40
2018,07,12,07,19,9.40
2018,07,12,07,20,9.40
2018,07,12,07,21,9.40
2018,07,12,07,22,9.40
2018,07,12,07,23,9.40
2018,07,12,07,24,9.40
2018,07,12,07,25,9.40
2018,07,12,07,26,9.40
2018,07,12,07,27,9.50
2018,07,12,07,28,9.50
2018,07,12,07,29,9.60
2018,07,12,07,30,9.60
2018,07,12,07,31,9.60
2018,07,12,07,32,9.60
2018,07,12,07,33,9.60
2018,07,12,07,34,9.60
2018,07,12,07,35,9.70
2018,07,12,07,36,9.70
2018,07,12,07,37,9.70
2018,07,12,07,38,9.70
2018,07,12,07,39,9.70
2018,07,12,07,40,9.70
2018,07,12,07,41,9.70
2018,07,12,07,42,9.70
2018,07,12,07,43,9.70
2018,07,12,07,44,9.80
2018,07,12,07,45,9.80
2018,07,12,07,46,9.80
2018,07,12,07,47,9.80
2018,07,12,07,48,9.80
2018,07,12,07,49,9.80
2018,07,12,07,50,9.80
2018,07,12,07,51,9.80
2018,07,12,07,52,9.80
2018,07,12,07,53,9.80
2018,07,12,07,54,9.80
2018,07,12,07,55,9.80
2018,07,12,07,56,9.80
2018,07,12,07,57,9.80
2018,07,12,07,58,9.80
2018,07,12,07,59,9.80
2018,07,12,08,00,9.80
2018,07,12,08,01,9.90
2018,07,12,08,02,9.90
2018,07,12,08,03,9.90
2018,07,12,08,04,9.90
2018,07,12,08,05,9.90
2018,07,12,08,06,9.90
2018,07,12,08,07,9.90
2018,07,12,08,08,9.90
2018,07,12,08,09,9.90
2018,07,12,08,10,9.90
2018,07,12,08,11,9.90
2018,07,12,08,12,9.90
2018,07,12,08,13,9.90
2018,07,12,08,14,10.00
2018,07,12,08,15,10.00
2018,07,12,08,16,10.00
2018,07,12,08,17,10.10
2018,07,12,08,18,10.10
2018,07,12,08,19,10.10
2018,07,12,08,20,10.20
2018,07,12,08,21,10.20
2018,07,12,08,22,10.20
2018,07,12,08,23,10.20
2018,07,12,08,24,10.20
2018,07,12,08,25,10.20
2018,07,12,08,26,10.20
2018,07,12,08,27,10.30
2018,07,12,08,28,10.30
2018,07,12,08,29,10.30
2018,07,12,08,30,10.40
2018,07,12,08,31,10.40
2018,07,12,08,32,10.40
2018,07,12,08,33,10.40
2018,07,12,08,34,10.40
2018,07,12,08,35,10.40
2018,07,12,08,36,10.50
2018,07,12,08,37,10.50
2018,07,12,08,38,10.50
2018,07,12,08,39,10.50
2018,07,12,08,40,10.60
2018,07,12,08,41,10.60
2018,07,12,08,42,10.60
2018,07,12,08,43,10.60
2018,07,12,08,44,10.60
2018,07,12,08,45,10.60
2018,07,12,08,46,10.60
2018,07,12,08,47,10.60
2018,07,12,08,48,10.60
2018,07,12,08,49,10.70
2018,07,12,08,50,10.70
2018,07,12,08,51,10.70
2018,07,12,08,52,10.70
2018,07,12,08,53,10.80
2018,07,12,08,54,10.80
2018,07,12,08,55,10.80
2018,07,12,08,56,10.80
2018,07,12,08,57,10.80
2018,07,12,08,58,10.90
2018,07,12,08,59,10.90
2018,07,12,09,00,10.90
2018,07,12,09,01,11.00
2018,07,12,09,02,11.10
2018,07,12,09,03,11.10
2018,07,12,09,04,11.10
2018,07,12,09,05,11.20
2018,07,12,09,06,11.20
2018,07,12,09,07,11.20
2018,07,12,09,08,11.20
2018,07,12,09,09,11.30
2018,07,12,09,10,11.30
2018,07,12,09,11,11.30
2018,07,12,09,12,11.40
2018,07,12,09,13,11.40
2018,07,12,09,14,11.40
2018,07,12,09,15,11.50
2018,07,12,09,16,11.50
2018,07,12,09,17,11.60
2018,07,12,09,18,11.60
2018,07,12,09,19,11.70
2018,07,12,09,20,11.70
2018,07,12,09,21,11.70
2018,07,12,09,22,11.80
2018,07,12,09,23,11.80
2018,07,12,09,24,11.80
2018,07,12,09,25,11.80
2018,07,12,09,26,11.80
2018,07,12,09,27,11.80
2018,07,12,09,28,11.80
2018,07,12,09,29,11.80
2018,07,12,09,30,11.90
2018,07,12,09,31,11.90
2018,07,12,09,32,12.00
2018,07,12,09,33,12.00
2018,07,12,09,34,12.10
2018,07,12,09,35,12.20
2018,07,12,09,36,12.20
2018,07,12,09,37,12.20
2018,07,12,09,38,12.30
2018,07,12,09,39,12.30
2018,07,12,09,40,12.30
2018,07,12,09,41,12.30
2018,07,12,09,42,12.40
2018,07,12,09,43,12.40
2018,07,12,09,44,12.40
2018,07,12,09,45,12.50
2018,07,12,09,46,12.50
2018,07,12,09,47,12.60
2018,07,12,09,48,12.60
2018,07,12,09,49,12.60
2018,07,12,09,50,12.60
2018,07,12,09,51,12.60
2018,07,12,09,52,12.60
2018,07,12,09,53,12.70
2018,07,12,09,54,12.70
2018,07,12,09,55,12.70
2018,07,12,09,56,12.80
2018,07,12,09,57,12.80
2018,07,12,09,58,12.90
2018,07,12,09,59,12.90
2018,07,12,10,00,13.00
2018,07,12,10,01,13.10
2018,07,12,10,02,13.10
2018,07,12,10,03,13.20
2018,07,12,10,04,13.20
2018,07,12,10,05,13.30
2018,07,12,10,06,13.30
2018,07,12,10,07,13.40
2018,07,12,10,08,13.40
2018,07,12,10,09,13.40
2018,07,12,10,10,13.40
2018,07,12,10,11,13.40
2018,07,12,10,12,13.40
2018,07,12,10,13,13.30
2018,07,12,10,14,13.20
2018,07,12,10,15,13.10
2018,07,12,10,16,13.10
2018,07,12,10,17,13.00
2018,07,12,10,18,12.90
2018,07,12,10,19,12.90
2018,07,12,10,20,12.90
2018,07,12,10,21,12.80
2018,07,12,10,22,12.80
2018,07,12,10,23,12.80
2018,07,12,10,24,12.80
2018,07,12,10,25,12.80
2018,07,12,10,26,12.80
2018,07,12,10,27,12.80
2018,07,12,10,28,12.80
2018,07,12,10,29,12.80
2018,07,12,10,30,12.80
2018,07,12,10,31,12.80
2018,07,12,10,32,12.80
2018,07,12,10,33,12.80
2018,07,12,10,34,12.70
2018,07,12,10,35,12.70
2018,07,12,10,36,12.70
2018,07,12,10,37,12.70
2018,07,12,10,38,12.70
2018,07,12,10,39,12.70
2018,07,12,10,40,12.70
2018,07,12,10,41,12.70
2018,07,12,10,42,12.60
2018,07,12,10,43,12.60
2018,07,12,10,44,12.60
2018,07,12,10,45,12.60
2018,07,12,10,46,12.60
2018,07,12,10,47,12.60
2018,07,12,10,48,12.60
2018,07,12,10,49,12.70
2018,07,12,10,50,12.60
2018,07,12,10,51,12.70
2018,07,12,10,52,12.70
2018,07,12,10,53,12.60
2018,07,12,10,54,12.60
2018,07,12,10,55,12.60
2018,07,12,10,56,12.60
2018,07,12,10,57,12.60
2018,07,12,10,58,12.70
2018,07,12,10,59,12.70
2018,07,12,11,00,12.70
2018,07,12,11,01,12.70
2018,07,12,11,02,12.70
2018,07,12,11,03,12.70
2018,07,12,11,04,12.70
2018,07,12,11,05,12.70
2018,07,12,11,06,12.80
2018,07,12,11,07,12.80
2018,07,12,11,08,12.80
2018,07,12,11,09,12.80
2018,07,12,11,10,12.80
2018,07,12,11,11,12.80
2018,07,12,11,12,12.80
2018,07,12,11,13,12.80
2018,07,12,11,14,12.80
2018,07,12,11,15,12.90
2018,07,12,11,16,12.90
2018,07,12,11,17,12.90
2018,07,12,11,18,12.90
2018,07,12,11,19,12.90
2018,07,12,11,20,12.90
2018,07,12,11,21,12.90
2018,07,12,11,22,12.90
2018,07,12,11,23,12.90
2018,07,12,11,24,12.90
2018,07,12,11,25,12.90
2018,07,12,11,26,12.90
2018,07,12,11,27,12.90
2018,07,12,11,28,12.90
2018,07,12,11,29,12.90
2018,07,12,11,30,12.90
2018,07,12,11,31,12.90
2018,07,12,11,32,13.00
2018,07,12,11,33,13.00
2018,07,12,11,34,13.00
2018,07,12,11,35,13.00
2018,07,12,11,36,13.10
2018,07,12,11,37,13.10
2018,07,12,11,38,13.10
2018,07,12,11,39,13.10
2018,07,12,11,40,13.10
2018,07,12,11,41,13.10
2018,07,12,11,42,13.20
2018,07,12,11,43,13.20
2018,07,12,11,44,13.20
2018,07,12,11,45,13.20
2018,07,12,11,46,13.20
2018,07,12,11,47,13.20
2018,07,12,11,48,13.30
2018,07,12,11,49,13.30
2018,07,12,11,50,13.30
2018,07,12,11,51,13.30
2018,07,12,11,52,13.30
2018,07,12,11,53,13.30
2018,07,12,11,54,13.30
2018,07,12,11,55,13.40
2018,07,12,11,56,13.40
2018,07,12,11,57,13.40
2018,07,12,11,58,13.50
2018,07,12,11,59,13.50
2018,07,12,12,00,13.50
2018,07,12,12,01,13.60
2018,07,12,12,02,13.60
2018,07,12,12,03,13.60
2018,07,12,12,04,13.60
2018,07,12,12,05,13.60
2018,07,12,12,06,13.60
2018,07,12,12,07,13.70
2018,07,12,12,08,13.70
2018,07,12,12,09,13.70
2018,07,12,12,10,13.70
2018,07,12,12,11,13.80
2018,07,12,12,12,13.80
2018,07,12,12,13,13.80
2018,07,12,12,14,13.90
2018,07,12,12,15,13.90
2018,07,12,12,16,14.00
2018,07,12,12,17,14.10
2018,07,12,12,18,14.10
2018,07,12,12,19,14.10
2018,07,12,12,20,14.20
2018,07,12,12,21,14.20
2018,07,12,12,22,14.30
2018,07,12,12,23,14.30
2018,07,12,12,24,14.40
2018,07,12,12,25,14.40
2018,07,12,12,26,14.50
2018,07,12,12,27,14.50
2018,07,12,12,28,14.50
2018,07,12,12,29,14.60
2018,07,12,12,30,14.60
2018,07,12,12,31,14.60
2018,07,12,12,32,14.60
2018,07,12,12,33,14.50
2018,07,12,12,34,14.50
2018,07,12,12,35,14.50
2018,07,12,12,36,14.50
2018,07,12,12,37,14.50
2018,07,12,12,38,14.60
2018,07,12,12,39,14.60
2018,07,12,12,40,14.60
2018,07,12,12,41,14.60
2018,07,12,12,42,14.70
2018,07,12,12,43,14.70
2018,07,12,12,44,14.70
2018,07,12,12,45,14.80
2018,07,12,12,46,14.80
2018,07,12,12,47,14.90
2018,07,12,12,48,15.00
2018,07,12,12,49,15.10
2018,07,12,12,50,15.10
2018,07,12,12,51,15.20
2018,07,12,12,52,15.20
2018,07,12,12,53,15.20
2018,07,12,12,54,15.20
2018,07,12,12,55,15.30
2018,07,12,12,56,15.30
2018,07,12,12,57,15.40
2018,07,12,12,58,15.40
2018,07,12,12,59,15.40
2018,07,12,13,00,15.50
2018,07,12,13,01,15.50
2018,07,12,13,02,15.60
2018,07,12,13,03,15.60
2018,07,12,13,04,15.60
2018,07,12,13,05,15.50
2018,07,12,13,06,15.50
2018,07,12,13,07,15.40
2018,07,12,13,08,15.40
2018,07,12,13,09,15.40
2018,07,12,13,10,15.50
2018,07,12,13,11,15.50
2018,07,12,13,12,15.50
2018,07,12,13,13,15.60
2018,07,12,13,14,15.60
2018,07,12,13,15,15.70
2018,07,12,13,16,15.70
2018,07,12,13,17,15.80
2018,07,12,13,18,15.80
2018,07,12,13,19,15.80
2018,07,12,13,20,15.70
2018,07,12,13,21,15.60
2018,07,12,13,22,15.60
2018,07,12,13,23,15.60
2018,07,12,13,24,15.50
2018,07,12,13,25,15.40
2018,07,12,13,26,15.30
2018,07,12,13,27,15.30
2018,07,12,13,28,15.30
2018,07,12,13,29,15.20
2018,07,12,13,30,15.10
2018,07,12,13,31,15.10
2018,07,12,13,32,15.00
2018,07,12,13,33,15.00
2018,07,12,13,34,14.90
2018,07,12,13,35,14.90
2018,07,12,13,36,14.80
2018,07,12,13,37,14.80
2018,07,12,13,38,14.80
2018,07,12,13,39,14.80
2018,07,12,13,40,14.70
2018,07,12,13,41,14.70
2018,07,12,13,42,14.70
2018,07,12,13,43,14.70
2018,07,12,13,44,14.70
2018,07,12,13,45,14.60
2018,07,12,13,46,14.60
2018,07,12,13,47,14.60
2018,07,12,13,48,14.60
2018,07,12,13,49,14.60
2018,07,12,13,50,14.60
2018,07,12,13,51,14.60
2018,07,12,13,52,14.60
2018,07,12,13,53,14.60
2018,07,12,13,54,14.60
2018,07,12,13,55,14.60
2018,07,12,13,56,14.60
2018,07,12,13,57,14.60
2018,07,12,13,58,14.60
2018,07,12,13,59,14.60
2018,07,12,14,00,14.60
2018,07,12,14,01,14.60
2018,07,12,14,02,14.60
2018,07,12,14,03,14.60
2018,07,12,14,04,14.60
2018,07,12,14,05,14.70
2018,07,12,14,06,14.70
2018,07,12,14,07,14.70
2018,07,12,14,08,14.70
2018,07,12,14,09,14.70
2018,07,12,14,10,14.70
2018,07,12,14,11,14.70
2018,07,12,14,12,14.70
2018,07,12,14,13,14.70
2018,07,12,14,14,14.70
2018,07,12,14,15,14.60
2018,07,12,14,16,14.60
2018,07,12,14,17,14.70
2018,07,12,14,18,14.70
2018,07,12,14,19,14.70
2018,07,12,14,20,14.70
2018,07,12,14,21,14.70
2018,07,12,14,22,14.80
2018,07,12,14,23,14.80
2018,07,12,14,24,14.80
2018,07,12,14,25,14.80
2018,07,12,14,26,14.80
2018,07,12,14,27,14.80
2018,07,12,14,28,14.90
2018,07,12,14,29,14.90
2018,07,12,14,30,14.90
2018,07,12,14,31,14.90
2018,07,12,14,32,14.90
2018,07,12,14,33,14.90
2018,07,12,14,34,14.90
2018,07,12,14,35,14.90
2018,07,12,14,36,15.00
2018,07,12,14,37,15.00
2018,07,12,14,38,15.00
2018,07,12,14,39,15.00
2018,07,12,14,40,15.00
2018,07,12,14,41,15.00
2018,07,12,14,42,15.10
2018,07,12,14,43,15.10
2018,07,12,14,44,15.10
2018,07,12,14,45,15.10
2018,07,12,14,46,15.10
2018,07,12,14,47,15.20
2018,07,12,14,48,15.20
2018,07,12,14,49,15.20
2018,07,12,14,50,15.20
2018,07,12,14,51,15.20
2018,07,12,14,52,15.30
2018,07,12,14,53,15.30
2018,07,12,14,54,15.30
2018,07,12,14,55,15.40
2018,07,12,14,56,15.40
2018,07,12,14,57,15.40
2018,07,12,14,58,15.40
2018,07,12,14,59,15.50
2018,07,12,15,00,15.50
2018,07,12,15,01,15.50
2018,07,12,15,02,15.50
2018,07,12,15,03,15.50
2018,07,12,15,04,15.50
2018,07,12,15,05,15.50
2018,07,12,15,06,15.50
2018,07,12,15,07,15.50
2018,07,12,15,08,15.60
2018,07,12,15,09,15.60
2018,07,12,15,10,15.60
2018,07,12,15,11,15.60
2018,07,12,15,12,15.70
2018,07,12,15,13,15.70
2018,07,12,15,14,15.70
2018,07,12,15,15,15.80
2018,07,12,15,16,15.80
2018,07,12,15,17,15.90
2018,07,12,15,18,15.90
2018,07,12,15,19,15.90
2018,07,12,15,20,15.90
2018,07,12,15,21,16.00
2018,07,12,15,22,16.00
2018,07,12,15,23,16.00
2018,07,12,15,24,16.00
2018,07,12,15,25,16.00
2018,07,12,15,26,16.00
2018,07,12,15,27,16.00
2018,07,12,15,28,16.00
2018,07,12,15,29,16.00
2018,07,12,15,30,16.00
2018,07,12,15,31,16.00
2018,07,12,15,32,16.00
2018,07,12,15,33,16.00
2018,07,12,15,34,15.90
2018,07,12,15,35,15.90
2018,07,12,15,36,15.90
2018,07,12,15,37,15.90
2018,07,12,15,38,15.90
2018,07,12,15,39,15.90
2018,07,12,15,40,16.00
2018,07,12,15,41,16.00
2018,07,12,15,42,16.10
2018,07,12,15,43,16.10
2018,07,12,15,44,16.20
2018,07,12,15,45,16.20
2018,07,12,15,46,16.30
2018,07,12,15,47,16.30
2018,07,12,15,48,16.40
2018,07,12,15,49,16.40
2018,07,12,15,50,16.50
2018,07,12,15,51,16.50
2018,07,12,15,52,16.50
2018,07,12,15,53,16.60
2018,07,12,15,54,16.50
2018,07,12,15,55,16.50
2018,07,12,15,56,16.50
2018,07,12,15,57,16.40
2018,07,12,15,58,16.40
2018,07,12,15,59,16.40
2018,07,12,16,00,16.40
2018,07,12,16,01,16.30
2018,07,12,16,02,16.30
2018,07,12,16,03,16.30
2018,07,12,16,04,16.40
2018,07,12,16,05,16.40
2018,07,12,16,06,16.40
2018,07,12,16,07,16.40
2018,07,12,16,08,16.40
2018,07,12,16,09,16.30
2018,07,12,16,10,16.30
2018,07,12,16,11,16.30
2018,07,12,16,12,16.30
2018,07,12,16,13,16.30
2018,07,12,16,14,16.30
2018,07,12,16,15,16.30
2018,07,12,16,16,16.30
2018,07,12,16,17,16.30
2018,07,12,16,18,16.30
2018,07,12,16,19,16.30
2018,07,12,16,20,16.40
2018,07,12,16,21,16.40
2018,07,12,16,22,16.40
2018,07,12,16,23,16.40
2018,07,12,16,24,16.40
2018,07,12,16,25,16.50
2018,07,12,16,26,16.50
2018,07,12,16,27,16.50
2018,07,12,16,28,16.50
2018,07,12,16,29,16.40
2018,07,12,16,30,16.40
2018,07,12,16,31,16.40
2018,07,12,16,32,16.40
2018,07,12,16,33,16.40
2018,07,12,16,34,16.50
2018,07,12,16,35,16.50
2018,07,12,16,36,16.50
2018,07,12,16,37,16.60
2018,07,12,16,38,16.60
2018,07,12,16,39,16.70
2018,07,12,16,40,16.70
2018,07,12,16,41,16.70
2018,07,12,16,42,16.80
2018,07,12,16,43,16.80
2018,07,12,16,44,16.80
2018,07,12,16,45,16.80
2018,07,12,16,46,16.80
2018,07,12,16,47,16.80
2018,07,12,16,48,16.80
2018,07,12,16,49,16.90
2018,07,12,16,50,16.90
2018,07,12,16,51,16.90
2018,07,12,16,52,16.90
2018,07,12,16,53,17.00
2018,07,12,16,54,17.00
2018,07,12,16,55,16.90
2018,07,12,16,56,16.90
2018,07,12,16,57,16.90
2018,07,12,16,58,17.00
2018,07,12,16,59,17.00
2018,07,12,17,00,17.00
2018,07,12,17,01,17.10
2018,07,12,17,02,17.20
2018,07,12,17,03,17.20
2018,07,12,17,04,17.30
2018,07,12,17,05,17.30
2018,07,12,17,06,17.30
2018,07,12,17,07,17.40
2018,07,12,17,08,17.40
2018,07,12,17,09,17.40
2018,07,12,17,10,17.50
2018,07,12,17,11,17.60
2018,07,12,17,12,17.60
2018,07,12,17,13,17.60
2018,07,12,17,14,17.60
2018,07,12,17,15,17.60
2018,07,12,17,16,17.50
2018,07,12,17,17,17.50
2018,07,12,17,18,17.40
2018,07,12,17,19,17.40
2018,07,12,17,20,17.40
2018,07,12,17,21,17.30
2018,07,12,17,22,17.30
2018,07,12,17,23,17.30
2018,07,12,17,24,17.30
2018,07,12,17,25,17.30
2018,07,12,17,26,17.20
2018,07,12,17,27,17.20
2018,07,12,17,28,17.20
2018,07,12,17,29,17.20
2018,07,12,17,30,17.30
2018,07,12,17,31,17.30
2018,07,12,17,32,17.30
2018,07,12,17,33,17.30
2018,07,12,17,34,17.30
2018,07,12,17,35,17.30